Location: Pacheco
(37.9835°N, 122.0752°W)
Time: 00:48:26
(UTC+00:00)

YAOGAN 11 - Visible Passes

Search period start: 13 July 2024 00:00
Search period end: 23 July 2024 00:00
Orbit: 606 x 657 km, 98.4° (Epoch: 12 July)

Date Brightness Start Highest point End Pass type
(mag) Time Alt. Az. Time Alt. Az. Time Alt. Az.
16 Jul 7.3 12:03:23 10° E 12:05:49 15° ENE 12:08:16 10° NNE visible
17 Jul 6.9 12:23:02 10° ESE 12:26:30 24° ENE 12:30:02 10° NNE visible
20 Jul 7.8 11:52:15 10° ENE 11:53:17 11° ENE 11:54:19 10° NE visible
21 Jul 7.2 12:11:00 10° ESE 12:13:54 18° ENE 12:16:51 10° NNE visible
22 Jul 6.6 12:30:52 10° SE 12:34:36 29° ENE 12:38:24 10° N visible
